Cody, WY

7:07 PM MDT on June 27, 2017 (GMT -0600)
Yellowstone Regional

Weather History for KCOD - April, 2012

Change the Weather History Date:

Wednesday, April 25, 2012

  Actual Average Record
Temperature  
Mean Temperature 65 °F -  
Max Temperature 77 °F 57 °F 81 °F (1927)
Min Temperature 53 °F 34 °F 19 °F (1960)
Growing Degree Days 15 (Base 50)    
Moisture  
Dew Point 33 °F    
Average Humidity 34    
Maximum Humidity 54    
Minimum Humidity 14    
Precipitation  
Precipitation 0.00 in - - ()
Sea Level Pressure  
Sea Level Pressure 29.94 in    
Wind  
Wind Speed 10 mph (SW)    
Max Wind Speed 20 mph    
Max Gust Speed 31 mph    
Visibility 10 miles    
Events      
Averages and records for this station are not official NWS values.
T = Trace of Precipitation, MM = Missing Value Source: NWS Daily Summary

Daily Weather History Graph

Daily Weather History Graph

Search for Another Location

Airport or City:

Trip Planner

Search our weather history database for the weather conditions in past years. The results will help you decide how hot, cold, wet, or windy it might be!

Date:

Astronomy

Apr. 25, 2012 Rise Set
Actual Time 6:14 AM MDT 8:13 PM MDT
Civil Twilight 5:43 AM MDT 8:45 PM MDT
Nautical Twilight 5:04 AM MDT 9:24 PM MDT
Astronomical Twilight 4:22 AM MDT 10:06 PM MDT
Moon 8:56 AM MDT (4/25) No Moon Set
Length of Visible Light 15h 02m
Length of Day
13h 59m
Waxing Crescent, 17% of the Moon is Illuminated
Apr 25
Waxing Crescent
Apr 29
First Quarter
May 5
Full
May 12
Last Quarter
May 20
New

Hourly Weather History & Observations

Time (MDT) Temp. Dew Point Humidity Pressure Visibility Wind Dir Wind Speed Gust Speed Precip Events Conditions
12:15 AM 60.8 °F 35.6 °F 39% 29.91 in 10.0 mi SW 10.4 mph 20.7 mph N/A   Mostly Cloudy
12:35 AM 62.6 °F 35.6 °F 37% 29.91 in 10.0 mi WSW 13.8 mph 23.0 mph N/A   Overcast
1:15 AM 59.0 °F 39.2 °F 48% 29.93 in 10.0 mi SW 17.3 mph 31.1 mph N/A   Overcast
1:55 AM 57.2 °F 39.2 °F 51% 29.93 in 10.0 mi SW 12.7 mph 18.4 mph N/A   Mostly Cloudy
2:15 AM 57.2 °F 39.2 °F 51% 29.93 in 10.0 mi SW 15.0 mph - N/A   Mostly Cloudy
2:35 AM 57.2 °F 39.2 °F 51% 29.93 in 10.0 mi SW 15.0 mph 21.9 mph N/A   Overcast
2:55 AM 57.2 °F 39.2 °F 51% 29.93 in 10.0 mi West 10.4 mph 17.3 mph N/A   Overcast
3:35 AM 55.4 °F 37.4 °F 51% 29.94 in 10.0 mi SW 11.5 mph - N/A   Mostly Cloudy
3:55 AM 55.4 °F 37.4 °F 51% 29.94 in 10.0 mi WSW 4.6 mph - N/A   Partly Cloudy
4:15 AM 53.6 °F 37.4 °F 54% 29.95 in 10.0 mi West 4.6 mph - N/A   Clear
4:35 AM 55.4 °F 37.4 °F 51% 29.95 in 10.0 mi West 3.5 mph - N/A   Clear
4:55 AM 53.6 °F 37.4 °F 54% 29.95 in 10.0 mi SW 6.9 mph - N/A   Clear
5:15 AM 53.6 °F 37.4 °F 54% 29.95 in 10.0 mi SSW 9.2 mph - N/A   Clear
5:35 AM 53.6 °F 37.4 °F 54% 29.95 in 10.0 mi WSW 3.5 mph - N/A   Clear
6:15 AM 53.6 °F 37.4 °F 54% 29.96 in 10.0 mi WSW 6.9 mph - N/A   Clear
6:35 AM 53.6 °F 37.4 °F 54% 29.97 in 10.0 mi Calm Calm - N/A   Clear
6:55 AM 53.6 °F 37.4 °F 54% 29.97 in 10.0 mi SW 10.4 mph - N/A   Clear
7:15 AM 55.4 °F 37.4 °F 51% 29.98 in 10.0 mi SW 6.9 mph - N/A   Clear
7:35 AM 57.2 °F 37.4 °F 48% 29.98 in 10.0 mi SW 9.2 mph - N/A   Clear
8:15 AM 59.0 °F 37.4 °F 45% 29.98 in 10.0 mi SSW 12.7 mph - N/A   Clear
8:35 AM 60.8 °F 39.2 °F 45% 29.98 in 10.0 mi SSW 15.0 mph - N/A   Clear
8:55 AM 62.6 °F 39.2 °F 42% 29.97 in 10.0 mi SSW 12.7 mph - N/A   Clear
9:15 AM 64.4 °F 37.4 °F 37% 29.98 in 10.0 mi SW 12.7 mph 16.1 mph N/A   Clear
9:35 AM 66.2 °F 33.8 °F 30% 29.97 in 10.0 mi West 10.4 mph - N/A   Clear
9:55 AM 66.2 °F 33.8 °F 30% 29.98 in 10.0 mi West 6.9 mph - N/A   Clear
10:15 AM 69.8 °F 33.8 °F 27% 29.98 in 10.0 mi West 8.1 mph - N/A   Clear
10:35 AM 69.8 °F 32.0 °F 25% 29.99 in 10.0 mi West 5.8 mph - N/A   Clear
10:55 AM 69.8 °F 32.0 °F 25% 29.99 in 10.0 mi West 6.9 mph - N/A   Clear
11:15 AM 71.6 °F 28.4 °F 20% 29.98 in 10.0 mi WSW 16.1 mph 20.7 mph N/A   Clear
11:35 AM 71.6 °F 26.6 °F 19% 29.98 in 10.0 mi WSW 12.7 mph 19.6 mph N/A   Clear
11:55 AM 71.6 °F 28.4 °F 20% 29.96 in 10.0 mi Calm Calm - N/A   Clear
12:15 PM 71.6 °F 30.2 °F 22% 29.96 in 10.0 mi SE 6.9 mph - N/A   Clear
1:15 PM 71.6 °F 30.2 °F 22% 29.95 in 10.0 mi East 8.1 mph - N/A   Partly Cloudy
1:35 PM 73.4 °F 30.2 °F 20% 29.94 in 10.0 mi ENE 5.8 mph - N/A   Scattered Clouds
1:55 PM 75.2 °F 30.2 °F 19% 29.94 in 10.0 mi NW 11.5 mph - N/A   Scattered Clouds
2:15 PM 73.4 °F 26.6 °F 18% 29.93 in 10.0 mi NW 6.9 mph - N/A   Clear
2:35 PM 73.4 °F 26.6 °F 18% 29.93 in 10.0 mi West 11.5 mph 17.3 mph N/A   Clear
2:55 PM 75.2 °F 30.2 °F 19% 29.93 in 10.0 mi North 8.1 mph 16.1 mph N/A   Clear
3:15 PM 75.2 °F 28.4 °F 18% 29.91 in 10.0 mi NW 8.1 mph 16.1 mph N/A   Clear
3:35 PM 75.2 °F 26.6 °F 17% 29.90 in 10.0 mi WSW 5.8 mph - N/A   Clear
3:56 PM 75.2 °F 26.6 °F 17% 29.90 in 10.0 mi WSW 6.9 mph 16.1 mph N/A   Clear
4:15 PM 77.0 °F 24.8 °F 14% 29.89 in 10.0 mi SSW 4.6 mph - N/A   Clear
4:35 PM 73.4 °F 30.2 °F 20% 29.89 in 10.0 mi ENE 6.9 mph - N/A   Partly Cloudy
4:55 PM 73.4 °F 30.2 °F 20% 29.89 in 10.0 mi ESE 12.7 mph - N/A   Mostly Cloudy
5:15 PM 71.6 °F 28.4 °F 20% 29.90 in 10.0 mi SE 10.4 mph - N/A   Mostly Cloudy
5:35 PM 71.6 °F 28.4 °F 20% 29.90 in 10.0 mi SE 6.9 mph - N/A   Partly Cloudy
5:55 PM 71.6 °F 28.4 °F 20% 29.90 in 10.0 mi SSE 11.5 mph - N/A   Clear
6:15 PM 71.6 °F 28.4 °F 20% 29.90 in 10.0 mi South 15.0 mph 18.4 mph N/A   Mostly Cloudy
6:35 PM 71.6 °F 28.4 °F 20% 29.90 in 10.0 mi SSE 12.7 mph - N/A   Scattered Clouds
6:55 PM 71.6 °F 28.4 °F 20% 29.90 in 10.0 mi South 19.6 mph 23.0 mph N/A   Mostly Cloudy
7:15 PM 69.8 °F 32.0 °F 25% 29.90 in 10.0 mi SSE 19.6 mph 25.3 mph N/A   Mostly Cloudy
7:35 PM 68.0 °F 33.8 °F 28% 29.90 in 10.0 mi South 12.7 mph - N/A   Clear
7:55 PM 68.0 °F 32.0 °F 26% 29.90 in 10.0 mi SSW 8.1 mph - N/A   Clear
8:15 PM 66.2 °F 32.0 °F 28% 29.90 in 10.0 mi SW 8.1 mph - N/A   Clear
8:55 PM 64.4 °F 32.0 °F 30% 29.91 in 10.0 mi South 9.2 mph - N/A   Overcast
9:15 PM 62.6 °F 33.8 °F 34% 29.91 in 10.0 mi South 8.1 mph - N/A   Mostly Cloudy
9:55 PM 60.8 °F 35.6 °F 39% 29.95 in 10.0 mi NNW 5.8 mph - N/A   Mostly Cloudy
10:15 PM 60.8 °F 35.6 °F 39% 29.94 in 10.0 mi NW 8.1 mph - N/A   Partly Cloudy
10:35 PM 59.0 °F 35.6 °F 42% 29.93 in 10.0 mi NW 6.9 mph - N/A   Clear
10:55 PM 57.2 °F 35.6 °F 44% 29.93 in 10.0 mi NW 6.9 mph - N/A   Clear
11:15 PM 57.2 °F 35.6 °F 44% 29.93 in 10.0 mi NNW 5.8 mph - N/A   Scattered Clouds
11:35 PM 57.2 °F 35.6 °F 44% 29.92 in 10.0 mi NNW 3.5 mph - N/A   Scattered Clouds
11:55 PM 57.2 °F 35.6 °F 44% 29.91 in 10.0 mi NNW 3.5 mph - N/A   Partly Cloudy